EDW132 HEGN-LSZH

Flight info

Callsign EDW132
Flight time N/A
Altitude 34000
Route DCT HGD V608 NABED T55 GINDI W8 ALPID/N0464F330 DCT GESON/N0463F340 Q777 RASDA DCT METRU DCT TIGRA/N0454F360 DCT AIOSA DCT ROTAR DCT MOBDO DCT SOTOV/N0470F300 P66 KPT L856 NEGRA NEGRA2A
Aircraft A320/M-SDE3FGHIRWY/LB1

Departure

Time 2026-05-05 10:59
Airport Hurghada International Airport (HEGN)

Arrival

Time N/A
Airport Zürich Airport (LSZH)
Time Latitude Longitude Altitude Speed Heading
2026-05-05 10:50 27.17936 33.80603 61 ft 0 kts 75°
2026-05-05 10:50 27.17933 33.80588 55 ft 4 kts 77°
2026-05-05 10:51 27.17928 33.80559 57 ft 4 kts 83°
2026-05-05 10:51 27.17926 33.80529 57 ft 4 kts 95°
2026-05-05 10:51 27.17932 33.80502 55 ft 4 kts 134°
2026-05-05 10:51 27.17943 33.80493 55 ft 1 kts 165°
2026-05-05 10:52 27.17945 33.80493 55 ft 0 kts 165°
2026-05-05 10:53 27.17943 33.80493 61 ft 3 kts 165°
2026-05-05 10:54 27.17865 33.80516 58 ft 21 kts 166°
2026-05-05 10:54 27.17718 33.80552 58 ft 21 kts 167°
2026-05-05 10:54 27.17604 33.80589 56 ft 13 kts 162°
2026-05-05 10:54 27.17521 33.80619 59 ft 12 kts 162°
2026-05-05 10:55 27.17446 33.80642 60 ft 10 kts 168°
2026-05-05 10:55 27.17375 33.80660 58 ft 11 kts 165°
2026-05-05 10:55 27.17306 33.80681 57 ft 9 kts 166°
2026-05-05 10:55 27.17189 33.80715 58 ft 29 kts 165°
2026-05-05 10:56 27.17067 33.80706 56 ft 17 kts 238°
2026-05-05 10:56 27.17031 33.80568 61 ft 19 kts 253°
2026-05-05 10:56 27.16937 33.80540 56 ft 15 kts 164°
2026-05-05 10:56 27.16836 33.80569 54 ft 19 kts 166°
2026-05-05 10:57 27.16711 33.80607 59 ft 18 kts 165°
2026-05-05 10:57 27.16557 33.80653 58 ft 26 kts 165°
2026-05-05 10:57 27.16409 33.80691 60 ft 14 kts 186°
2026-05-05 10:57 27.16370 33.80617 60 ft 11 kts 256°
2026-05-05 10:58 27.16375 33.80544 55 ft 10 kts 311°
2026-05-05 10:58 27.16433 33.80519 61 ft 9 kts 345°
2026-05-05 10:58 27.16602 33.80468 56 ft 55 kts 345°
2026-05-05 10:58 27.17177 33.80299 57 ft 113 kts 345°
2026-05-05 10:59 27.18086 33.80033 65 ft 156 kts 346°
2026-05-05 10:59 27.19124 33.79723 675 ft 153 kts 345°
2026-05-05 10:59 27.20154 33.79378 1290 ft 155 kts 344°
2026-05-05 10:59 27.21225 33.79017 1701 ft 170 kts 343°
2026-05-05 11:00 27.22432 33.78612 1957 ft 192 kts 342°
2026-05-05 11:00 27.23774 33.78161 2255 ft 213 kts 342°
2026-05-05 11:00 27.25260 33.77668 2596 ft 235 kts 342°
2026-05-05 11:00 27.26850 33.77147 3288 ft 241 kts 341°
2026-05-05 11:01 27.28488 33.76612 3992 ft 248 kts 340°
2026-05-05 11:01 27.30162 33.76069 4792 ft 252 kts 339°
2026-05-05 11:01 27.31743 33.75243 5488 ft 252 kts 317°
2026-05-05 11:01 27.32804 33.73689 6161 ft 254 kts 291°
2026-05-05 11:02 27.33058 33.71716 6836 ft 261 kts 264°
2026-05-05 11:02 27.32572 33.69739 7600 ft 264 kts 254°
2026-05-05 11:02 27.31988 33.67774 8345 ft 266 kts 254°
2026-05-05 11:02 27.31396 33.65788 9062 ft 270 kts 254°
2026-05-05 11:03 27.30798 33.63777 9779 ft 272 kts 254°
2026-05-05 11:03 27.30189 33.61722 10221 ft 286 kts 253°
2026-05-05 11:03 27.29549 33.59546 10345 ft 308 kts 253°
2026-05-05 11:03 27.28856 33.57187 10592 ft 324 kts 253°
2026-05-05 11:04 27.28138 33.54761 11130 ft 329 kts 253°
2026-05-05 11:04 27.27410 33.52311 11749 ft 332 kts 253°
2026-05-05 11:04 27.26676 33.49842 12369 ft 334 kts 253°
2026-05-05 11:04 27.25941 33.47360 13001 ft 336 kts 253°
2026-05-05 11:05 27.25204 33.44860 13600 ft 338 kts 253°
2026-05-05 11:05 27.24460 33.42338 14180 ft 340 kts 253°
2026-05-05 11:05 27.23713 33.39807 14733 ft 342 kts 253°
2026-05-05 11:05 27.22960 33.37270 15284 ft 344 kts 253°
2026-05-05 11:06 27.22232 33.34703 15819 ft 344 kts 258°
2026-05-05 11:06 27.21900 33.32040 16358 ft 345 kts 269°
2026-05-05 11:06 27.22039 33.29345 16954 ft 346 kts 275°
2026-05-05 11:06 27.22273 33.26643 17469 ft 349 kts 275°
2026-05-05 11:07 27.22499 33.23920 17988 ft 351 kts 275°
2026-05-05 11:07 27.22719 33.21213 18509 ft 354 kts 275°
2026-05-05 11:07 27.22942 33.18451 18935 ft 356 kts 275°
2026-05-05 11:07 27.23166 33.15671 19403 ft 357 kts 275°
2026-05-05 11:08 27.23394 33.12887 19844 ft 359 kts 275°
2026-05-05 11:08 27.23627 33.10089 20283 ft 360 kts 275°
2026-05-05 11:08 27.23857 33.07273 20722 ft 362 kts 275°
2026-05-05 11:08 27.24086 33.04448 21149 ft 364 kts 275°
2026-05-05 11:09 27.24316 33.01606 21577 ft 366 kts 275°
2026-05-05 11:09 27.24544 32.98746 22010 ft 367 kts 275°
2026-05-05 11:09 27.24770 32.95917 22421 ft 369 kts 275°
2026-05-05 11:09 27.25001 32.93037 22825 ft 371 kts 275°
2026-05-05 11:10 27.25233 32.90142 23218 ft 373 kts 275°
2026-05-05 11:10 27.25469 32.87227 23613 ft 375 kts 275°
2026-05-05 11:10 27.25705 32.84293 23874 ft 378 kts 274°
2026-05-05 11:10 27.25942 32.81341 24187 ft 380 kts 274°
2026-05-05 11:11 27.26179 32.78373 24506 ft 382 kts 274°
2026-05-05 11:11 27.26415 32.75390 24823 ft 383 kts 274°
2026-05-05 11:11 27.26649 32.72402 25142 ft 385 kts 274°
2026-05-05 11:11 27.26883 32.69402 25460 ft 386 kts 274°
2026-05-05 11:12 27.27118 32.66395 25769 ft 387 kts 274°
2026-05-05 11:12 27.27354 32.63369 26081 ft 388 kts 274°
2026-05-05 11:12 27.27588 32.60340 26399 ft 390 kts 274°
2026-05-05 11:12 27.27822 32.57299 26700 ft 391 kts 274°
2026-05-05 11:13 27.28056 32.54248 27007 ft 392 kts 274°
2026-05-05 11:13 27.28290 32.51188 27300 ft 394 kts 274°
2026-05-05 11:13 27.28528 32.48114 27603 ft 395 kts 274°
2026-05-05 11:13 27.28766 32.45033 27885 ft 397 kts 274°
2026-05-05 11:14 27.29004 32.41940 28161 ft 398 kts 274°
2026-05-05 11:14 27.29244 32.38833 28431 ft 399 kts 274°
2026-05-05 11:14 27.29476 32.35760 28686 ft 401 kts 274°
2026-05-05 11:14 27.29735 32.32622 28928 ft 403 kts 277°
2026-05-05 11:15 27.30371 32.29545 29161 ft 407 kts 286°
2026-05-05 11:15 27.31518 32.26618 29403 ft 413 kts 295°
2026-05-05 11:15 27.33150 32.23930 29632 ft 419 kts 303°
2026-05-05 11:15 27.34944 32.21331 29863 ft 421 kts 303°
2026-05-05 11:16 27.36734 32.18734 30176 ft 420 kts 302°
2026-05-05 11:16 27.38520 32.16139 30484 ft 419 kts 302°
2026-05-05 11:16 27.40299 32.13548 30761 ft 418 kts 302°
2026-05-05 11:16 27.42071 32.10961 31032 ft 417 kts 302°
2026-05-05 11:17 27.43839 32.08371 31304 ft 416 kts 302°
2026-05-05 11:17 27.45578 32.05823 31600 ft 415 kts 302°
2026-05-05 11:17 27.47334 32.03246 31918 ft 414 kts 302°
2026-05-05 11:17 27.49090 32.00670 32237 ft 412 kts 302°